CTX831 KLVK-KSAN

Flight info

Callsign CTX831
Flight time N/A
Altitude 8500
Route LVK3 ALTAM AVE LHS V459 SLI V23 MZB
Aircraft C172/L-SFG/C

Departure

Time 2026-04-11 22:50
Airport Livermore Municipal Airport (KLVK)

Arrival

Time N/A
Airport San Diego International Airport (KSAN)
Time Latitude Longitude Altitude Speed Heading
2026-04-11 22:24 37.69576 -121.82268 405 ft 0 kts 97°
2026-04-11 22:36 37.69498 -121.82265 405 ft 16 kts 181°
2026-04-11 22:36 37.69458 -121.82212 406 ft 10 kts 90°
2026-04-11 22:36 37.69456 -121.82089 406 ft 18 kts 91°
2026-04-11 22:36 37.69455 -121.81920 406 ft 18 kts 90°
2026-04-11 22:37 37.69453 -121.81776 406 ft 15 kts 90°
2026-04-11 22:37 37.69453 -121.81653 406 ft 15 kts 90°
2026-04-11 22:37 37.69451 -121.81467 405 ft 24 kts 90°
2026-04-11 22:37 37.69450 -121.81273 405 ft 20 kts 90°
2026-04-11 22:38 37.69458 -121.81138 405 ft 9 kts 66°
2026-04-11 22:38 37.69446 -121.81097 405 ft 3 kts 204°
2026-04-11 22:38 37.69444 -121.81100 405 ft 1 kts 244°
2026-04-11 22:38 37.69442 -121.81111 405 ft 0 kts 268°
2026-04-11 22:48 37.69438 -121.81136 404 ft 0 kts 190°
2026-04-11 22:48 37.69435 -121.81135 404 ft 0 kts 166°
2026-04-11 22:49 37.69433 -121.81135 404 ft 2 kts 167°
2026-04-11 22:49 37.69382 -121.81179 403 ft 12 kts 265°
2026-04-11 22:49 37.69383 -121.81413 404 ft 50 kts 271°
2026-04-11 22:49 37.69380 -121.82027 437 ft 85 kts 271°
2026-04-11 22:50 37.69385 -121.82823 596 ft 93 kts 269°
2026-04-11 22:50 37.69345 -121.83660 774 ft 97 kts 266°
2026-04-11 22:50 37.69299 -121.84509 952 ft 100 kts 267°
2026-04-11 22:50 37.69249 -121.85405 1113 ft 105 kts 268°
2026-04-11 22:51 37.69251 -121.86318 1337 ft 99 kts 287°
2026-04-11 22:51 37.69628 -121.86921 1694 ft 86 kts 336°
2026-04-11 22:51 37.70235 -121.86958 1875 ft 93 kts 13°
2026-04-11 22:51 37.70894 -121.86754 2003 ft 102 kts 14°
2026-04-11 22:52 37.71601 -121.86528 2137 ft 107 kts 16°
2026-04-11 22:52 37.72274 -121.86145 2294 ft 108 kts 40°
2026-04-11 22:52 37.72860 -121.85538 2439 ft 110 kts 39°
2026-04-11 22:52 37.73469 -121.84955 2588 ft 110 kts 34°
2026-04-11 22:53 37.74092 -121.84418 2739 ft 110 kts 33°
2026-04-11 22:53 37.74726 -121.83884 2887 ft 108 kts 33°
2026-04-11 22:53 37.75337 -121.83376 3030 ft 103 kts 33°
2026-04-11 22:53 37.75928 -121.82888 3166 ft 100 kts 32°
2026-04-11 22:54 37.76501 -121.82419 3306 ft 97 kts 32°
2026-04-11 22:54 37.77057 -121.81964 3446 ft 94 kts 32°
2026-04-11 22:54 37.77603 -121.81519 3588 ft 92 kts 32°
2026-04-11 22:54 37.78142 -121.81078 3732 ft 92 kts 32°
2026-04-11 22:55 37.79176 -121.80232 4015 ft 87 kts 32°
2026-04-11 22:55 37.79680 -121.79820 4151 ft 85 kts 32°
2026-04-11 22:55 37.80180 -121.79410 4274 ft 87 kts 34°
2026-04-11 22:56 37.80498 -121.78765 4452 ft 89 kts 79°
2026-04-11 22:56 37.80632 -121.77998 4612 ft 91 kts 77°
2026-04-11 22:56 37.80775 -121.77211 4765 ft 92 kts 77°
2026-04-11 22:56 37.80919 -121.76423 4913 ft 92 kts 77°
2026-04-11 22:57 37.81062 -121.75642 5072 ft 92 kts 77°
2026-04-11 22:57 37.81091 -121.74845 5223 ft 92 kts 111°
2026-04-11 22:57 37.80691 -121.74237 5386 ft 91 kts 149°
2026-04-11 22:57 37.80157 -121.73794 5541 ft 92 kts 147°
2026-04-11 22:58 37.79625 -121.73344 5694 ft 92 kts 148°
2026-04-11 22:58 37.79090 -121.72892 5848 ft 93 kts 148°
2026-04-11 22:58 37.78553 -121.72439 5999 ft 93 kts 148°
2026-04-11 22:58 37.78015 -121.71985 6145 ft 93 kts 148°
2026-04-11 22:59 37.77475 -121.71529 6287 ft 93 kts 148°
2026-04-11 22:59 37.76942 -121.71080 6433 ft 94 kts 148°
2026-04-11 22:59 37.76399 -121.70622 6574 ft 94 kts 148°
2026-04-11 22:59 37.75855 -121.70162 6734 ft 94 kts 148°
2026-04-11 23:00 37.75312 -121.69703 6888 ft 94 kts 148°
2026-04-11 23:00 37.74766 -121.69243 7039 ft 94 kts 148°
2026-04-11 23:00 37.74220 -121.68782 7190 ft 95 kts 148°
2026-04-11 23:00 37.73671 -121.68319 7343 ft 95 kts 148°
2026-04-11 23:01 37.73122 -121.67856 7493 ft 95 kts 148°
2026-04-11 23:01 37.72571 -121.67392 7641 ft 95 kts 148°
2026-04-11 23:01 37.72019 -121.66927 7787 ft 96 kts 148°
2026-04-11 23:01 37.71473 -121.66467 7922 ft 96 kts 148°
2026-04-11 23:02 37.70918 -121.66000 8060 ft 96 kts 148°
2026-04-11 23:02 37.70362 -121.65532 8194 ft 96 kts 148°
2026-04-11 23:02 37.69807 -121.65064 8325 ft 96 kts 148°
2026-04-11 23:02 37.69249 -121.64592 8453 ft 97 kts 148°
2026-04-11 23:03 37.68688 -121.64121 8576 ft 97 kts 148°
2026-04-11 23:03 37.68126 -121.63649 8708 ft 97 kts 148°
2026-04-11 23:03 37.67564 -121.63175 8831 ft 97 kts 148°
2026-04-11 23:03 37.66998 -121.62701 8956 ft 98 kts 148°
2026-04-11 23:04 37.66442 -121.62233 9075 ft 97 kts 148°
2026-04-11 23:04 37.56755 -121.54597 9102 ft 105 kts 143°
2026-04-11 23:04 37.56310 -121.53835 9112 ft 111 kts 139°
2026-04-11 23:04 37.55668 -121.53242 9114 ft 117 kts 146°
2026-04-11 23:05 37.54987 -121.52644 9111 ft 121 kts 147°
2026-04-11 23:05 37.54285 -121.52045 9112 ft 123 kts 147°
2026-04-11 23:05 37.53569 -121.51441 9110 ft 125 kts 148°
2026-04-11 23:05 37.52846 -121.50834 9112 ft 126 kts 148°
2026-04-11 23:06 37.52124 -121.50230 9108 ft 127 kts 148°
2026-04-11 23:06 37.51391 -121.49615 9111 ft 126 kts 148°
2026-04-11 23:06 37.50660 -121.49003 9110 ft 126 kts 148°
2026-04-11 23:06 37.49930 -121.48391 9110 ft 126 kts 148°
2026-04-11 23:07 37.49192 -121.47775 9111 ft 128 kts 148°
2026-04-11 23:07 37.48451 -121.47155 9110 ft 129 kts 148°
2026-04-11 23:07 37.47708 -121.46535 9110 ft 127 kts 148°
2026-04-11 23:07 37.46971 -121.45918 9110 ft 127 kts 148°
2026-04-11 23:08 37.46245 -121.45310 9112 ft 127 kts 148°
2026-04-11 23:08 37.45508 -121.44694 9111 ft 127 kts 148°
2026-04-11 23:08 37.44770 -121.44078 9110 ft 127 kts 148°
2026-04-11 23:08 37.44035 -121.43463 9111 ft 127 kts 148°
2026-04-11 23:09 37.43299 -121.42850 9105 ft 126 kts 148°
2026-04-11 23:09 37.42570 -121.42240 9104 ft 126 kts 148°
2026-04-11 23:09 37.41840 -121.41628 9107 ft 126 kts 148°
2026-04-11 23:09 37.41107 -121.41017 9106 ft 126 kts 148°
2026-04-11 23:10 37.40375 -121.40407 9106 ft 126 kts 148°
2026-04-11 23:10 37.39654 -121.39806 9102 ft 126 kts 148°
2026-04-11 23:10 37.38926 -121.39198 9100 ft 125 kts 148°
2026-04-11 23:10 37.38191 -121.38612 9100 ft 125 kts 153°
2026-04-11 23:11 37.37470 -121.38012 9097 ft 124 kts 146°
2026-04-11 23:11 37.36755 -121.37397 9095 ft 125 kts 148°
2026-04-11 23:11 37.10011 -121.15290 9099 ft 13156 kts 148°
2026-04-11 23:11 36.74000 -120.85388 9095 ft 125 kts 152°
2026-04-11 23:12 36.35941 -120.57147 9098 ft 125 kts 154°
2026-04-11 23:12 36.32026 -120.53262 9096 ft 0 kts 108°
2026-04-11 23:12 36.31244 -120.50876 9097 ft 124 kts 144°
2026-04-11 23:12 36.30512 -120.50318 9201 ft 119 kts 157°
2026-04-11 23:13 36.29834 -120.49788 9092 ft 111 kts 160°
2026-04-11 23:13 36.29208 -120.49292 9064 ft 103 kts 159°
2026-04-11 23:13 36.28632 -120.48829 9062 ft 95 kts 161°
2026-04-11 23:13 36.28083 -120.48388 9061 ft 93 kts 160°
2026-04-11 23:14 36.27546 -120.47959 9056 ft 92 kts 161°
2026-04-11 23:14 36.27012 -120.47530 9057 ft 90 kts 159°
2026-04-11 23:14 36.26500 -120.47116 9064 ft 88 kts 161°
2026-04-11 23:14 36.25984 -120.46701 9054 ft 89 kts 160°
2026-04-11 23:15 36.25471 -120.46289 9055 ft 87 kts 160°
2026-04-11 23:15 36.24960 -120.45878 9057 ft 88 kts 161°
2026-04-11 23:15 36.24449 -120.45468 9057 ft 87 kts 161°
2026-04-11 23:15 36.23946 -120.45063 9057 ft 86 kts 162°
2026-04-11 23:16 36.23442 -120.44659 9051 ft 86 kts 160°
2026-04-11 23:16 36.22949 -120.44260 9054 ft 84 kts 162°
2026-04-11 23:16 36.22465 -120.43872 9062 ft 84 kts 161°
2026-04-11 23:16 36.21972 -120.43476 9060 ft 85 kts 161°
2026-04-11 23:17 36.21455 -120.43062 9067 ft 92 kts 160°
2026-04-11 23:17 36.20904 -120.42621 9074 ft 97 kts 160°
2026-04-11 23:17 36.20327 -120.42158 9074 ft 101 kts 159°
2026-04-11 23:17 36.19735 -120.41683 9076 ft 102 kts 159°
2026-04-11 23:18 36.19134 -120.41200 9075 ft 103 kts 159°
2026-04-11 23:18 36.18531 -120.40714 9070 ft 104 kts 159°
2026-04-11 23:18 35.70349 -120.09766 9087 ft 97 kts 176°
2026-04-11 23:18 35.69909 -120.09421 9478 ft 41 kts 161°
2026-04-11 23:19 35.70327 -120.09676 7408 ft 189 kts 330°
2026-04-11 23:19 35.71234 -120.10219 7120 ft 117 kts 304°